Temperature
16 17 16 16 16 16 16 16 16 17 17 16 16 16 16 15 15 15 15 15 16 16 16 15 15 15 15 15 15 15 15 15 15 15 15 15 15 15
16 16 16 16 16 16 16 16 16 16 16 16 15 15 15 15 15 15 15 15 15 15 15 15 15 15 15 15 15 15 15 15 15 15 15 15 15 15
16 16 16 16 16 16 15 15 15 16 15 15 15 15 15 15 15 15 15 14 15 15 15 15 15 15 15 15 15 15 15 15 15 15 15 15 15 15
16 16 15 15 15 15 15 15 15 15 15 15 15 14 15 14 15 15 14 15 14 15 15 15 15 15 15 15 15 15 15 15 15 15 15 15 15 15
15 15 15 15 15 15 15 15 15 15 14 14 14 14 14 14 14 14 14 14 14 14 14 15 15 15 15 15 15 15 15 15 15 15 15 15 14 14
15 15 15 14 14 14 14 14 14 14 14 14 14 14 14 14 14 14 14 14 14 14 14 14 14 14 14 15 15 15 15 15 15 14 14 14 14 14
14 15 14 14 14 14 14 14 14 14 14 14 14 14 14 14 14 14 14 14 14 14 14 14 14 14 14 14 14 14 14 14 14 14 14 14 14 14
14 14 14 14 14 14 14 14 14 14 14 14 14 14 13 14 14 14 14 14 14 14 14 14 14 14 14 14 14 14 14 14 14 14 14 14 14 14
14 14 14 14 14 14 14 14 14 14 14 13 13 13 13 13 13 13 13 13 14 14 13 14 14 13 13 14 14 14 14 14 13 13 13 13 13 13
13 13 13 13 13 13 13 13 13 13 13 13 13 13 13 13 13 13 13 13 13 13 13 13 13 13 13 13 13 13 13 13 13 13 13 13 13 13
13 13 12 13 13 13 13 13 13 13 13 13 13 13 13 13 12 12 12 13 13 13 13 13 13 13 13 13 13 13 13 13 13 13 13 12 12 12
12 12 12 12 12 12 12 12 12 12 12 12 12 12 12 12 12 12 12 12 13 13 13 12 13 13 13 13 13 13 12 12 12 12 12 12 12 12
12 12 12 12 12 12 12 12 12 12 12 12 12 12 11 12 12 11 11 11 12 12 12 12 12 12 12 12 12 12 12 12 12 12 12 12 12 12
11 11 11 11 11 11 11 11 11 11 11 11 11 11 11 11 11 11 11 11 11 11 11 11 11 11 11 11 12 12 12 11 11 11 11 11 11 11
11 11 11 11 11 11 11 11 11 11 11 11 11 11 11 11 11 11 11 11 11 11 11 11 11 10 10 11 11 11 11 11 11 11 11 11 11 11
10 10 10 10 10 10 10 10 10 10 10 10 10 10 10 10 10 10 10 10 10 11 11 10 10 10 10 10 10 10 10 10 10 10 10 10 10 10
10 10 10 10 10 10 10 10 10 10 10 10 10 10 10 10 10 10 10 10 10 10 10 10 10 10 10 10 10 10 10 10 10 10 9 9 10 10
10 10 10 10 10 10 10 10 9 9 9 9 9 10 10 10 10 10 10 10 10 10 10 10 10 9 9 10 9 9 9 9 9 9 9 9 9 9
10 10 9 9 9 9 9 9 9 9 9 9 9 9 9 9 9 9 9 9 9 9 9 9 9 9 9 9 9 9 9 8 8 8 8 8 8 8
9 9 9 9 9 9 9 9 9 9 9 8 9 9 9 9 9 9 9 8 8 8 8 8 8 8 8 8 8 8 8 8 8 8 8 8 8 8
9 9 9 9 9 9 9 9 9 8 8 8 8 8 8 8 8 8 8 8 8 8 8 8 8 7 7 8 8 8 8 8 7 7 7 7 7 7
9 9 9 9 9 9 8 8 8 8 8 8 8 8 8 8 8 7 8 8 7 7 7 7 7 7 7 8 8 8 7 7 7 7 7 7 7 7
9 9 9 9 9 8 8 8 8 8 8 8 8 8 7 7 7 7 7 7 7 7 7 7 7 7 7 7 7 7 7 7 7 7 7 7 7 6
Wind_Speed
2 2 3 2 2 3 3 4 4 4 4 3 3 2 2 2 2 3 4 5 7 7 7 7 7 8 8 9 9 9 10 11 11 12 13 13 14 14
1 1 2 2 2 3 3 4 4 5 5 3 3 3 2 3 3 4 5 6 7 7 7 7 7 7 7 8 8 9 9 10 11 11 12 12 13 13
1 2 2 2 3 3 3 3 4 4 5 5 4 3 3 4 4 5 6 7 6 7 8 8 8 7 7 7 8 8 8 9 10 10 11 12 13 13
2 2 2 2 3 3 3 4 4 4 5 5 4 4 5 5 5 6 5 6 6 6 9 9 8 8 8 9 9 8 8 9 9 10 11 12 13 13
3 3 3 3 4 4 4 4 4 4 4 5 5 4 5 5 5 5 6 5 7 6 9 11 10 10 10 9 9 9 9 9 10 10 11 11 12 12
3 3 3 4 4 4 4 5 5 5 4 5 5 5 5 5 5 5 5 5 6 5 5 7 9 12 11 10 9 9 9 9 10 10 10 10 11 12
3 3 3 2 3 3 4 4 4 4 4 5 5 5 5 4 5 5 5 5 5 5 5 5 5 6 8 9 10 9 10 10 10 10 10 10 11 12
3 3 3 2 2 2 3 3 4 4 5 5 5 5 6 6 5 6 5 6 5 4 5 5 5 6 5 6 7 9 10 10 10 11 11 11 12 12
3 3 3 2 2 4 3 4 4 4 5 7 7 7 6 6 6 7 6 6 7 5 4 6 5 5 5 5 6 9 9 10 10 10 11 12 12 13
3 3 3 2 3 4 4 3 4 4 4 6 6 7 6 6 6 7 7 7 7 5 5 7 6 6 6 4 5 7 9 10 10 10 11 12 12 13
2 2 2 3 2 3 4 4 4 4 2 2 3 4 4 5 5 5 6 6 6 5 4 6 6 5 6 5 4 8 9 9 9 10 11 11 12 12
2 2 1 2 3 3 4 4 5 5 5 4 3 4 5 5 5 6 6 6 6 6 3 4 6 5 5 5 4 4 5 8 10 10 11 11 11 9
2 2 1 2 1 3 4 4 5 6 5 4 4 3 3 3 4 4 5 6 7 6 4 3 5 5 6 5 5 4 4 4 5 6 9 11 12 10
3 2 1 1 1 3 3 4 5 5 4 4 4 4 4 4 4 4 5 5 6 8 7 5 5 5 6 6 6 4 4 4 4 4 4 5 8 11
2 1 1 3 4 3 3 4 4 4 4 4 4 4 4 4 4 4 5 5 6 6 6 6 6 6 6 7 7 6 5 5 4 4 4 4 4 4
2 2 4 5 4 3 3 3 4 4 4 5 5 4 4 4 4 4 4 4 5 5 4 5 6 6 6 7 7 6 5 5 5 4 4 4 4 4
3 2 1 1 1 1 2 2 3 3 3 4 4 4 4 4 4 4 4 5 5 5 5 3 3 4 4 6 6 6 5 5 5 4 4 4 4 4
3 1 2 2 2 2 2 2 2 2 3 3 3 4 4 4 4 4 4 4 5 5 5 5 4 4 4 4 4 6 5 5 5 4 5 5 5 4
2 2 3 3 3 3 3 3 3 2 3 3 3 4 4 4 4 4 4 4 5 5 5 5 5 5 6 7 4 3 6 5 4 4 4 5 5 4
3 4 4 4 4 4 4 4 4 3 3 4 4 4 4 4 4 5 4 5 5 6 6 5 5 5 6 7 7 5 4 5 4 4 4 4 3 2
4 5 5 5 5 4 4 4 4 4 4 4 4 4 4 4 4 5 5 4 5 6 6 5 4 6 6 6 6 4 3 2 3 4 4 4 4 4
5 5 5 5 5 5 5 5 5 4 4 5 4 4 4 5 5 5 5 5 5 5 6 6 5 5 5 5 5 5 4 2 1 1 3 4 4 4
5 6 5 5 5 5 5 5 6 5 5 5 4 4 4 5 5 5 5 6 6 5 5 5 5 4 4 4 4 4 4 4 3 2 2 1 1 2
Wind_Direction
222 217 239 247 245 245 241 242 251 258 258 243 242 236 238 241 224 243 246 207 204 215 225 231 233 234 233 234 234 236 237 239 239 239 231 227 225 225
241 243 250 248 247 245 242 244 247 251 258 252 254 250 263 257 247 254 247 222 206 214 223 225 227 229 230 228 232 236 238 237 235 234 230 226 225 224
264 243 252 262 255 248 249 251 253 251 250 256 253 249 251 258 261 259 250 247 226 202 215 221 224 225 227 230 232 234 235 237 235 232 232 228 225 224
258 259 259 251 252 256 253 251 253 250 247 253 254 253 251 250 252 255 253 250 248 203 208 216 223 225 229 232 233 234 234 234 233 232 232 229 227 223
255 256 259 256 255 255 257 255 253 248 245 246 253 261 260 259 257 257 258 256 252 223 207 210 218 226 232 232 234 238 238 238 237 234 232 228 225 222
251 256 256 257 257 259 256 255 253 250 241 244 249 249 253 255 255 257 255 251 255 252 240 231 220 221 224 224 230 235 235 234 233 231 229 228 226 224
252 257 256 271 296 286 281 265 255 252 247 246 250 254 257 257 257 255 258 262 256 253 255 247 234 236 229 225 229 236 236 232 231 231 230 229 227 225
260 265 258 249 264 263 289 298 288 263 262 258 256 263 265 261 261 264 263 266 267 257 263 261 253 253 246 242 226 223 228 230 230 230 231 229 227 226
264 271 272 274 278 272 260 249 264 284 275 266 267 272 275 274 270 266 264 263 268 273 267 268 262 261 262 246 197 207 221 230 233 233 233 231 230 229
257 265 272 275 285 284 269 265 264 263 258 254 262 272 280 285 275 270 273 264 262 259 257 267 266 266 265 255 187 204 218 226 231 232 232 233 232 231
261 274 287 276 335 304 266 268 274 277 257 255 266 274 293 289 284 279 276 270 268 260 248 264 272 275 269 257 228 205 216 222 227 228 229 230 229 230
257 251 2 341 349 311 266 268 273 281 285 277 259 249 256 254 248 261 270 272 275 274 258 264 273 278 276 267 269 245 236 227 223 222 224 224 222 230
274 271 317 60 328 303 287 283 289 288 278 269 267 267 264 263 260 260 270 274 277 276 286 273 280 277 273 279 281 276 267 262 247 238 224 217 216 223
271 276 293 135 250 276 287 309 302 287 280 280 279 281 281 282 280 275 274 274 279 282 293 286 275 278 277 279 283 287 286 280 270 265 262 228 220 224
280 323 284 231 228 239 241 261 269 275 282 282 284 286 288 294 290 281 274 267 269 272 281 275 272 276 274 276 281 286 288 286 280 273 267 259 255 252
269 236 216 224 235 250 247 252 262 272 275 278 282 284 286 287 286 289 284 279 278 281 281 275 266 269 273 278 281 283 285 284 284 280 277 272 264 254
290 273 300 323 315 303 303 301 288 282 280 281 282 285 291 296 298 298 296 291 286 290 295 289 268 258 273 282 279 281 285 288 291 291 279 274 273 267
283 284 282 284 289 288 289 289 287 299 304 303 301 301 296 294 295 295 294 294 297 302 306 305 293 283 275 280 269 282 286 290 295 295 280 273 279 285
252 273 278 277 277 278 275 278 282 287 299 294 290 294 296 294 295 297 296 297 300 304 308 305 300 290 288 288 290 282 292 295 294 285 278 276 277 285
265 276 277 276 277 278 276 279 282 284 285 283 283 287 290 296 298 298 297 304 303 303 302 300 303 300 290 290 293 294 279 283 285 282 281 279 283 283
269 274 277 278 277 277 276 273 274 278 284 283 282 288 285 288 293 295 297 301 294 294 295 297 307 291 281 280 282 291 306 290 293 290 285 273 270 271
273 272 273 277 275 274 273 271 270 271 272 272 281 285 284 284 284 284 285 286 284 288 294 298 297 286 280 281 285 293 302 301 298 289 293 289 278 271
273 275 274 273 271 271 272 270 269 269 267 273 280 280 281 283 284 283 283 283 286 288 291 294 294 289 285 286 287 292 292 285 284 291 298 266 179 210
Height
1528 1528 1529 1529 1529 1530 1530 1530 1531 1530 1530 1530 1530 1529 1529 1529 1528 1528 1527 1527 1527 1526 1526 1526 1526 1526 1526 1526 1527 1527 1527 1528 1528 1529 1530 1530 1531 1532
1526 1526 1526 1527 1527 1527 1527 1527 1528 1528 1527 1527 1527 1527 1526 1526 1526 1525 1524 1523 1523 1523 1523 1522 1522 1522 1522 1522 1522 1522 1523 1523 1523 1524 1525 1525 1526 1528
1524 1524 1524 1524 1524 1525 1525 1525 1525 1525 1524 1524 1524 1523 1523 1523 1522 1522 1522 1521 1521 1519 1519 1519 1519 1519 1519 1518 1518 1518 1518 1518 1518 1519 1520 1520 1522 1523
1522 1522 1522 1522 1522 1522 1522 1522 1522 1522 1522 1520 1520 1520 1519 1519 1518 1518 1518 1518 1517 1516 1515 1515 1515 1515 1515 1515 1514 1514 1513 1513 1513 1514 1515 1516 1517 1518
1520 1520 1520 1520 1519 1519 1519 1519 1519 1519 1518 1518 1517 1517 1516 1516 1515 1515 1514 1513 1514 1513 1512 1511 1511 1511 1511 1511 1510 1510 1509 1509 1509 1509 1510 1511 1512 1513
1517 1517 1517 1517 1516 1516 1516 1516 1516 1515 1515 1515 1514 1513 1513 1512 1511 1511 1510 1510 1510 1510 1509 1508 1507 1507 1507 1506 1506 1505 1505 1505 1504 1505 1505 1506 1507 1509
1514 1514 1514 1513 1513 1513 1513 1513 1512 1512 1512 1512 1511 1510 1509 1508 1507 1507 1507 1506 1506 1506 1505 1505 1504 1504 1503 1502 1501 1501 1501 1501 1500 1500 1501 1502 1503 1504
1511 1511 1511 1510 1510 1510 1510 1509 1509 1509 1508 1508 1507 1506 1504 1503 1503 1503 1503 1503 1502 1503 1501 1501 1501 1500 1499 1499 1497 1497 1496 1496 1496 1496 1496 1497 1498 1498
1508 1508 1508 1508 1507 1506 1506 1506 1505 1505 1504 1504 1503 1502 1501 1500 1499 1499 1499 1499 1498 1498 1498 1497 1497 1496 1496 1495 1493 1492 1492 1492 1492 1492 1492 1492 1493 1493
1505 1505 1504 1503 1503 1503 1502 1502 1501 1501 1500 1500 1499 1498 1497 1496 1496 1496 1495 1495 1494 1494 1494 1494 1493 1492 1492 1491 1489 1488 1488 1488 1487 1487 1487 1488 1488 1488
1502 1501 1500 1500 1500 1499 1499 1498 1497 1497 1497 1496 1495 1494 1493 1492 1492 1492 1492 1492 1491 1491 1490 1490 1489 1488 1488 1487 1486 1484 1484 1483 1483 1482 1482 1483 1483 1483
1499 1498 1498 1497 1497 1496 1495 1495 1494 1493 1493 1492 1491 1490 1489 1488 1488 1488 1488 1488 1487 1487 1486 1485 1485 1484 1483 1483 1482 1481 1480 1479 1479 1478 1478 1478 1479 1479
1496 1496 1495 1494 1494 1493 1492 1491 1491 1490 1490 1489 1488 1488 1487 1485 1485 1484 1484 1484 1484 1483 1483 1481 1481 1480 1480 1478 1478 1477 1477 1476 1475 1474 1474 1474 1474 1474
1493 1493 1493 1492 1491 1490 1489 1489 1488 1488 1488 1487 1486 1485 1484 1483 1482 1481 1480 1480 1479 1479 1478 1478 1477 1476 1476 1474 1473 1473 1473 1472 1472 1471 1470 1470 1470 1470
1491 1491 1490 1489 1488 1487 1487 1486 1486 1486 1485 1484 1483 1483 1482 1480 1479 1478 1477 1476 1475 1475 1474 1473 1473 1472 1472 1471 1470 1469 1468 1468 1468 1467 1466 1466 1466 1466
1489 1488 1488 1487 1486 1485 1484 1484 1483 1483 1482 1481 1481 1480 1479 1478 1477 1476 1475 1474 1473 1472 1471 1470 1469 1469 1468 1467 1467 1465 1465 1464 1463 1463 1462 1462 1462 1462
1488 1487 1486 1485 1484 1484 1483 1482 1481 1480 1479 1478 1478 1477 1476 1475 1474 1473 1472 1471 1470 1469 1468 1467 1466 1465 1464 1464 1462 1462 1461 1460 1459 1458 1458 1457 1457 1457
1486 1485 1484 1483 1482 1481 1480 1479 1478 1477 1476 1475 1474 1474 1473 1472 1471 1470 1469 1468 1467 1465 1464 1464 1463 1461 1461 1459 1459 1457 1457 1456 1456 1455 1454 1453 1452 1452
1484 1483 1482 1481 1480 1479 1478 1476 1475 1474 1473 1472 1471 1471 1470 1469 1468 1467 1466 1465 1464 1463 1462 1461 1460 1459 1457 1455 1455 1455 1454 1453 1452 1451 1450 1450 1449 1448
1482 1481 1480 1479 1478 1477 1476 1474 1473 1472 1471 1470 1469 1468 1467 1466 1465 1464 1463 1462 1461 1459 1459 1458 1457 1455 1454 1453 1452 1451 1450 1449 1449 1448 1447 1446 1445 1445
1479 1478 1477 1476 1475 1474 1473 1472 1470 1469 1468 1467 1466 1465 1464 1463 1462 1461 1460 1458 1457 1456 1455 1455 1453 1452 1451 1450 1449 1448 1447 1446 1445 1444 1443 1443 1442 1442
1476 1475 1474 1473 1472 1471 1470 1468 1467 1466 1465 1464 1463 1462 1461 1461 1460 1458 1457 1456 1455 1454 1453 1451 1450 1449 1448 1447 1446 1445 1444 1443 1442 1442 1441 1440 1439 1438
1472 1471 1470 1469 1468 1467 1466 1465 1464 1463 1462 1460 1459 1459 1458 1457 1457 1456 1454 1453 1452 1451 1450 1449 1447 1446 1445 1444 1443 1442 1441 1440 1440 1439 1438 1437 1437 1436